SCP
0 -0 0 0 0 0 0 0 0 0 0 0 0 0 0 0 0 0 0 0 0 0 0 0 0 0 0 0 0 0 0 0 0 0 0 0 0 0 0 0 0 0 0 0
0 -0 0 0 0 0 0 0 0 0 0 0 0 0 0 0 0 0 0 0 0 0 0 0 0 0 0 0 0 0 0 0 -0 -0 0 -0 -0 0 0 0 0 0 0 0
0 0 0 0 0 0 0 0 0 0 0 0 0 0 0 0 0 0 0 0 0 0 0 0 0 0 0 -0 -0 0 -0 0 0 0 -0 -0 -0 -0 -0 -0 -0 0 0 0
0 0 0 0 0 0 0 0 0 0 0 0 0 0 0 0 0 0 0 0 0 0 0 0 0 0 0 0 0 -0 0 0 -0 -0 -0 -0 -0 -0 -0 -0 -0 0 0 0
0 0 0 0 0 0 0 0 0 0 0 0 0 0 0 0 0 0 0 0 0 0 0 0 0 0 -0 -0 -0 0 -0 -0 -0 -0 -0 -0 -0 -0 -0 -0 -0 0 0 0
0 0 0 0 0 0 -0 0 0 0 0 0 0 0 0 0 0 0 0 0 0 0 0 0 0 0 0 0 -0 -0 -0 0 -0 0 0 0 0 0 0 0 0 0 0 0
0 0 0 0 0 0 0 0 0 0 0 0 0 0 0 0 0 0 0 0 0 0 0 0 0 0 0 -0 -0 -0 -0 -0 0 -0 -0 0 0 0 0 0 0 0 0 0
0 0 0 0 0 0 0 0 0 0 0 0 0 0 0 0 0 0 0 0 0 0 0 0 -0 0 -0 -0 0 0 0 0 0 0 0 0 0 0 0 0 0 0 0 0
0 0 -0 0 0 0 0 0 0 0 0 0 0 0 0 0 0 0 0 0 0 0 0 0 -0 -0 -0 -0 -0 0 0 0 0 0 0 -0 0 0 -0 -0 0 0 0 0
0 0 0 0 0 0 0 0 0 0 0 0 0 0 0 0 0 0 0 0 -0 0 0 0 -0 0 -0 -0 -0 0 0 0 -0 -0 0 -0 -0 0 0 0 0 0 0 0
0 0 0 0 0 0 0 0 0 0 0 0 0 0 0 0 0 0 0 -0 0 0 -0 -0 0 0 0 0 0 0 0 0 0 0 0 -0 -0 -0 -0 -0 0 0 0 0
0 0 0 0 0 0 0 0 0 0 0 0 0 0 0 0 0 -0 -0 0 -0 -0 0 0 0 0 0 0 0 -0 0 0 0 0 0 -0 0 0 0 -0 -0 0 -0 0
0 0 0 0 0 0 0 0 0 0 0 0 0 0 0 0 0 -0 -0 -0 0 0 -0 0 0 0 0 0 0 0 0 0 -0 0 -0 0 -0 0 -0 0 -0 -0 0 0
0 0 0 0 0 0 0 0 0 0 0 0 0 0 0 0 -0 0 0 0 0 0 0 0 0 0 0 0 0 0 0 0 0 -0 -0 -0 -0 -0 0 0 0 0 0 0
0 0 0 0 0 0 0 0 0 0 0 0 0 0 -0 0 0 0 0 0 0 0 0 0 0 0 0 0 -0 0 -0 0 -0 -0 -0 -0 0 0 0 0 0 0 0 0
0 0 0 0 0 0 0 0 0 0 0 0 0 -0 -0 0 0 0 0 0 0 0 0 0 0 0 0 0 0 0 0 -0 -0 -0 0 0 0 0 0 0 0 0 0 0
0 0 0 0 0 0 0 0 0 0 0 -0 0 -0 0 0 0 0 0 -0 0 0 0 0 0 0 0 0 0 0 0 0 0 0 0 0 0 0 0 0 0 0 0 0
0 0 0 0 0 0 0 0 0 0 -0 -0 -0 0 0 0 0 0 0 0 0 0 0 0 0 0 0 0 0 0 -0 0 0 0 0 0 0 0 0 0 0 0 0 0
0 0 0 0 0 0 0 0 0 -0 0 0 0 0 0 0 0 0 0 0 0 0 0 0 0 0 0 0 0 0 0 0 0 0 0 0 0 0 0 0 0 0 0 0
0 -0 0 0 0 0 0 0 -0 0 0 0 -0 0 0 0 0 0 -0 -0 0 0 0 0 0 0 0 0 0 0 0 0 0 0 0 0 0 0 0 0 0 0 0 0
-0 -0 0 0 0 0 0 0 0 0 0 0 0 0 0 0 0 0 -0 0 0 0 0 0 0 0 0 0 0 0 0 0 0 0 0 0 0 0 0 0 0 0 0 0
-0 -0 0 0 0 0 0 0 0 0 0 0 -0 0 0 0 0 0 0 0 0 0 0 0 0 0 0 0 0 0 0 0 0 0 0 0 0 0 0 0 0 0 0 0
-0 -0 0 0 0 0 0 0 0 0 0 -0 -0 0 0 0 0 0 0 0 0 0 0 0 0 0 0 0 0 0 0 0 0 0 0 0 0 0 0 0 0 0 0 0
-0 -0 0 0 0 -0 -0 0 0 0 0 0 0 0 0 0 -0 -0 -0 0 0 0 0 0 0 0 0 0 0 0 0 0 0 0 0 0 0 0 0 0 0 0 0 0
-0 -0 0 0 0 -0 -0 0 0 0 0 0 0 0 0 0 0 0 0 0 0 0 0 0 0 0 0 0 0 0 0 0 0 0 0 0 0 0 0 0 0 0 0 0
-0 -0 0 0 -0 -0 -0 0 0 0 0 0 0 0 0 0 0 0 0 0 0 0 0 0 0 0 0 0 0 0 0 0 0 0 0 0 0 0 0 0 0 0 0 0
-0 -0 -0 0 0 -0 0 0 0 0 0 0 0 0 0 0 0 0 0 0 0 0 0 0 0 0 0 0 0 0 0 0 0 0 0 0 0 0 0 0 0 0 0 0
Wind_Speed_500mb
33 36 35 31 26 28 30 26 19 29 20 24 23 19 25 39 43 41 37 44 49 51 55 57 61 63 58 47 40 44 50 42 40 32 25 26 30 29 33 31 30 26 26 19
29 35 31 35 25 22 28 30 23 16 10 22 26 37 43 40 38 40 41 46 46 49 49 48 48 51 46 43 37 42 35 32 27 24 30 35 30 30 33 32 26 24 23 17
26 32 34 23 16 16 10 12 12 10 15 16 23 36 36 34 35 37 38 36 41 44 40 47 45 44 38 38 35 35 20 23 32 34 33 29 30 26 28 26 21 22 20 19
17 21 17 7 12 13 8 16 25 22 22 28 35 34 27 30 35 28 27 30 36 35 40 41 31 39 29 26 23 18 27 28 29 26 30 25 24 27 26 25 25 24 20 18
7 10 23 4 20 22 18 26 28 25 26 36 35 29 29 41 28 24 24 26 25 28 33 35 29 26 26 18 24 25 26 23 27 30 28 33 26 25 26 24 25 23 20 21
16 16 17 11 8 6 20 5 28 28 32 29 30 17 21 43 35 30 28 44 38 33 31 30 23 20 22 23 25 26 23 25 22 29 27 34 31 23 27 27 26 21 19 21
18 14 10 6 13 17 11 10 26 31 28 27 21 22 33 36 30 27 28 34 31 26 22 23 24 24 24 26 25 22 23 20 25 35 29 32 28 27 27 29 32 25 22 22
8 15 15 27 7 11 10 19 23 27 30 29 31 33 31 30 29 25 28 34 25 16 18 23 19 23 22 24 24 24 23 23 25 29 29 31 27 28 31 33 34 32 29 26
4 3 10 11 16 16 14 19 25 30 31 34 36 33 32 31 22 21 33 22 14 13 17 22 20 21 23 26 27 23 20 21 22 23 25 30 32 29 21 20 28 28 29 26
5 11 18 13 21 22 20 25 23 30 33 32 29 31 27 17 21 27 18 14 14 17 21 17 17 22 19 23 26 21 23 22 23 25 19 19 17 25 39 32 23 28 31 41
8 14 20 22 18 21 23 28 30 28 27 29 25 21 19 18 20 16 11 15 18 15 10 15 20 17 21 21 33 33 19 22 24 27 19 18 22 25 34 34 32 31 31 38
5 15 11 19 16 20 24 26 22 25 25 21 19 19 21 20 14 13 20 10 8 5 15 20 26 31 29 27 28 29 25 19 24 20 21 22 24 20 25 30 25 27 30 31
10 5 7 11 16 19 20 20 19 19 19 14 16 16 19 16 16 28 12 4 10 18 25 22 28 32 34 37 21 23 21 23 25 27 30 22 21 15 19 22 19 22 25 25
6 4 6 10 14 16 16 16 20 16 12 15 15 17 14 13 22 8 6 10 18 16 23 23 25 25 29 29 30 34 26 25 26 31 25 31 28 25 25 27 28 20 22 23
5 9 10 9 12 13 15 18 14 13 10 13 12 12 14 19 10 4 6 15 17 21 23 25 26 29 22 26 29 28 28 30 31 35 31 28 27 28 28 29 33 30 20 23
4 3 6 9 12 12 14 16 10 9 9 10 11 15 23 8 2 4 15 16 23 25 23 28 27 26 26 25 22 26 31 30 34 24 27 30 32 28 35 38 40 40 35 35
12 8 12 11 11 10 11 9 9 7 8 14 21 25 13 2 5 13 13 21 22 24 25 24 26 24 25 25 21 30 26 27 28 35 44 63 65 56 54 52 60 58 50 43
14 14 13 11 9 6 8 11 8 8 17 24 25 12 1 2 9 19 20 15 19 25 26 32 29 27 22 25 37 32 30 41 42 52 60 59 63 62 64 65 68 73 65 61
13 14 14 15 11 10 11 12 9 18 27 28 15 5 6 6 15 18 18 19 21 20 20 24 26 25 29 27 35 32 34 42 44 44 47 52 55 63 71 69 74 76 78 78
14 15 14 14 12 13 15 11 15 21 30 25 16 10 7 11 17 11 20 23 25 18 15 17 22 24 31 27 31 33 34 31 34 38 43 46 42 42 48 56 63 70 72 76
12 14 13 10 13 14 12 16 18 26 35 18 10 9 16 14 17 27 21 21 16 16 30 18 26 27 24 32 31 31 32 33 33 33 31 32 40 43 46 46 45 58 60 64
12 12 12 11 12 12 20 23 27 33 16 17 18 8 4 12 15 22 23 22 22 21 21 22 28 30 27 26 24 30 30 29 32 33 33 34 36 41 44 45 47 46 47 48
15 11 10 10 12 16 25 29 33 20 18 18 8 12 11 15 19 17 17 18 18 23 21 20 27 31 30 26 27 29 30 31 31 31 32 35 38 40 42 43 44 44 45 45
11 6 9 14 14 22 26 33 25 12 25 18 14 3 8 14 19 24 27 26 27 27 26 26 23 28 29 28 29 28 28 30 32 33 35 36 37 37 38 38 41 42 42 44
9 7 12 13 13 23 28 37 32 26 26 22 12 18 17 20 17 15 20 27 30 26 29 32 31 28 26 28 30 30 31 33 34 36 38 40 41 42 43 45 45 44 45 46
13 9 7 9 11 26 30 37 24 21 20 23 11 10 12 14 16 16 14 13 13 13 18 21 24 28 30 30 31 32 31 33 33 33 35 38 38 39 40 39 39 40 41 43
8 7 12 7 12 27 31 33 29 22 19 11 6 10 9 12 15 14 17 19 20 21 23 23 24 25 26 27 28 29 34 35 33 35 35 37 38 37 38 37 38 36 34 34
Wind_Direction_500mb
289 292 300 301 289 275 280 274 244 265 288 27 24 8 357 358 344 342 2 2 354 352 349 340 332 331 328 325 325 318 322 327 324 320 328 347 331 331 335 337 336 348 357 5
286 282 276 300 304 303 281 276 284 310 41 4 14 9 353 355 6 0 356 349 352 351 341 337 333 328 332 326 321 323 328 333 341 351 342 335 340 337 330 338 343 347 357 8
292 304 319 301 305 334 13 3 344 320 37 38 17 359 21 27 16 354 344 357 352 343 336 331 333 332 331 325 328 333 347 1 343 340 334 341 333 337 344 343 349 350 352 6
297 302 285 350 46 9 329 28 25 31 17 13 4 347 55 28 5 348 0 356 348 341 333 337 336 332 347 345 348 11 352 341 343 340 345 351 354 352 356 5 4 10 12 12
251 282 263 15 14 21 17 63 35 23 0 346 343 338 93 4 34 32 13 2 349 342 343 342 341 346 349 39 12 351 344 346 352 4 5 354 348 2 4 6 8 21 8 27
263 266 283 54 158 263 282 170 11 1 343 7 353 348 340 341 14 16 11 350 345 346 349 357 6 50 20 356 346 349 342 4 5 356 352 359 7 18 15 16 24 28 21 18
230 241 84 11 264 296 275 16 345 342 15 11 359 341 334 359 11 11 357 353 354 353 18 49 26 9 352 347 355 352 4 17 10 9 7 356 13 17 16 24 26 25 23 26
281 267 241 355 35 40 26 349 338 353 15 358 343 338 353 0 1 357 352 351 358 47 33 19 359 352 356 10 9 22 22 18 13 12 12 8 21 29 30 27 18 20 24 25
104 104 191 71 53 53 20 354 360 351 359 355 340 344 354 358 348 342 344 356 43 32 2 4 359 359 7 12 11 2 6 1 1 354 10 20 23 19 12 22 16 12 15 360
344 102 51 23 65 42 13 15 3 4 2 355 356 344 351 345 341 341 354 23 77 17 358 9 29 359 1 352 348 345 347 357 3 352 356 356 29 15 6 24 31 20 18 15
325 35 84 57 44 28 7 1 358 359 6 357 355 358 352 338 333 352 31 97 57 18 8 346 339 354 359 346 337 330 334 10 354 352 7 12 19 31 14 24 19 23 23 14
64 59 5 59 29 24 9 1 10 4 4 15 13 358 8 27 48 68 97 73 19 8 334 343 350 4 350 358 43 49 25 12 8 14 29 42 36 32 18 20 27 24 16 25
69 39 35 44 65 25 15 16 26 29 19 23 2 34 57 52 65 111 91 20 360 346 351 13 34 25 24 28 32 28 24 25 26 41 52 44 33 47 27 40 22 7 7 22
90 323 90 41 19 28 24 56 24 34 27 11 42 68 54 68 115 82 20 357 4 19 16 39 33 31 32 25 37 31 30 26 42 47 53 42 51 44 37 40 36 26 28 34
103 73 79 48 21 41 69 33 29 43 18 32 70 80 85 95 96 48 357 8 24 36 34 31 29 18 26 31 33 41 37 49 51 54 49 47 57 60 56 41 43 50 62 55
172 143 41 21 32 61 49 23 49 45 32 68 94 97 112 122 26 13 1 28 42 41 36 35 30 34 36 40 48 49 60 58 58 48 52 55 57 55 60 55 57 61 67 78
252 83 30 26 42 73 46 52 62 58 79 104 116 122 103 232 321 322 33 64 50 43 37 41 42 39 42 49 51 72 62 48 62 68 73 75 69 66 64 71 70 69 72 80
94 76 62 61 77 77 82 86 97 96 116 129 129 100 150 31 5 46 41 54 53 51 39 50 55 44 48 65 72 76 59 75 79 82 91 63 55 68 72 72 72 72 71 76
94 87 78 69 75 96 101 107 113 121 132 132 96 108 125 23 56 57 48 43 45 51 49 45 53 49 69 88 81 74 63 64 86 82 86 65 49 66 67 70 73 74 72 71
104 87 84 70 84 100 108 134 122 131 143 123 104 126 46 36 35 46 65 62 55 74 43 67 50 56 68 94 83 88 82 80 80 67 59 55 45 56 56 64 65 71 71 72
106 101 92 79 101 106 136 119 131 140 148 122 124 111 65 53 48 65 62 60 35 60 63 79 75 70 88 90 78 84 90 83 80 80 64 49 56 60 65 67 63 62 69 72
102 107 73 114 114 125 126 133 139 133 132 132 140 90 33 66 63 73 63 61 63 66 76 79 85 85 86 79 81 84 87 82 78 76 64 61 68 67 67 67 70 71 70 67
103 115 77 125 127 137 136 147 139 114 150 148 125 93 89 52 74 81 67 62 70 82 88 94 101 94 84 89 89 90 87 81 78 77 75 72 71 70 70 71 71 69 68 70
124 86 85 132 134 144 151 159 146 132 144 149 117 26 76 80 64 65 69 78 86 91 90 89 95 98 93 84 88 87 84 81 81 81 80 79 77 74 73 75 75 72 72 74
132 48 45 126 151 159 161 167 153 149 144 130 126 97 51 83 100 102 92 93 95 85 75 75 80 88 95 94 92 90 89 87 83 82 79 77 76 76 77 78 76 76 78 79
130 124 61 144 184 165 168 167 159 166 148 144 121 100 90 102 106 101 100 86 70 74 94 84 87 89 91 92 92 91 89 90 90 87 85 84 84 83 81 81 81 83 85 84
139 47 41 89 164 171 171 170 174 185 192 219 191 136 116 116 113 107 106 96 91 88 89 91 92 96 98 100 100 97 98 98 93 89 87 86 83 83 82 81 84 87 94 92
Wind_Speed_850mb
33 36 35 31 26 28 30 26 19 29 20 24 23 19 25 39 43 41 37 44 49 51 55 57 61 63 58 47 40 44 50 42 40 32 25 26 30 29 33 31 30 26 26 19
29 35 31 35 25 22 28 30 23 16 10 22 26 37 43 40 38 40 41 46 46 49 49 48 48 51 46 43 37 42 35 32 27 24 30 35 30 30 33 32 26 24 23 17
26 32 34 23 16 16 10 12 12 10 15 16 23 36 36 34 35 37 38 36 41 44 40 47 45 44 38 38 35 35 20 23 32 34 33 29 30 26 28 26 21 22 20 19
17 21 17 7 12 13 8 16 25 22 22 28 35 34 27 30 35 28 27 30 36 35 40 41 31 39 29 26 23 18 27 28 29 26 30 25 24 27 26 25 25 24 20 18
7 10 23 4 20 22 18 26 28 25 26 36 35 29 29 41 28 24 24 26 25 28 33 35 29 26 26 18 24 25 26 23 27 30 28 33 26 25 26 24 25 23 20 21
16 16 17 11 8 6 20 5 28 28 32 29 30 17 21 43 35 30 28 44 38 33 31 30 23 20 22 23 25 26 23 25 22 29 27 34 31 23 27 27 26 21 19 21
18 14 10 6 13 17 11 10 26 31 28 27 21 22 33 36 30 27 28 34 31 26 22 23 24 24 24 26 25 22 23 20 25 35 29 32 28 27 27 29 32 25 22 22
8 15 15 27 7 11 10 19 23 27 30 29 31 33 31 30 29 25 28 34 25 16 18 23 19 23 22 24 24 24 23 23 25 29 29 31 27 28 31 33 34 32 29 26
4 3 10 11 16 16 14 19 25 30 31 34 36 33 32 31 22 21 33 22 14 13 17 22 20 21 23 26 27 23 20 21 22 23 25 30 32 29 21 20 28 28 29 26
5 11 18 13 21 22 20 25 23 30 33 32 29 31 27 17 21 27 18 14 14 17 21 17 17 22 19 23 26 21 23 22 23 25 19 19 17 25 39 32 23 28 31 41
8 14 20 22 18 21 23 28 30 28 27 29 25 21 19 18 20 16 11 15 18 15 10 15 20 17 21 21 33 33 19 22 24 27 19 18 22 25 34 34 32 31 31 38
5 15 11 19 16 20 24 26 22 25 25 21 19 19 21 20 14 13 20 10 8 5 15 20 26 31 29 27 28 29 25 19 24 20 21 22 24 20 25 30 25 27 30 31
10 5 7 11 16 19 20 20 19 19 19 14 16 16 19 16 16 28 12 4 10 18 25 22 28 32 34 37 21 23 21 23 25 27 30 22 21 15 19 22 19 22 25 25
6 4 6 10 14 16 16 16 20 16 12 15 15 17 14 13 22 8 6 10 18 16 23 23 25 25 29 29 30 34 26 25 26 31 25 31 28 25 25 27 28 20 22 23
5 9 10 9 12 13 15 18 14 13 10 13 12 12 14 19 10 4 6 15 17 21 23 25 26 29 22 26 29 28 28 30 31 35 31 28 27 28 28 29 33 30 20 23
4 3 6 9 12 12 14 16 10 9 9 10 11 15 23 8 2 4 15 16 23 25 23 28 27 26 26 25 22 26 31 30 34 24 27 30 32 28 35 38 40 40 35 35
12 8 12 11 11 10 11 9 9 7 8 14 21 25 13 2 5 13 13 21 22 24 25 24 26 24 25 25 21 30 26 27 28 35 44 63 65 56 54 52 60 58 50 43
14 14 13 11 9 6 8 11 8 8 17 24 25 12 1 2 9 19 20 15 19 25 26 32 29 27 22 25 37 32 30 41 42 52 60 59 63 62 64 65 68 73 65 61
13 14 14 15 11 10 11 12 9 18 27 28 15 5 6 6 15 18 18 19 21 20 20 24 26 25 29 27 35 32 34 42 44 44 47 52 55 63 71 69 74 76 78 78
14 15 14 14 12 13 15 11 15 21 30 25 16 10 7 11 17 11 20 23 25 18 15 17 22 24 31 27 31 33 34 31 34 38 43 46 42 42 48 56 63 70 72 76
12 14 13 10 13 14 12 16 18 26 35 18 10 9 16 14 17 27 21 21 16 16 30 18 26 27 24 32 31 31 32 33 33 33 31 32 40 43 46 46 45 58 60 64
12 12 12 11 12 12 20 23 27 33 16 17 18 8 4 12 15 22 23 22 22 21 21 22 28 30 27 26 24 30 30 29 32 33 33 34 36 41 44 45 47 46 47 48
15 11 10 10 12 16 25 29 33 20 18 18 8 12 11 15 19 17 17 18 18 23 21 20 27 31 30 26 27 29 30 31 31 31 32 35 38 40 42 43 44 44 45 45
11 6 9 14 14 22 26 33 25 12 25 18 14 3 8 14 19 24 27 26 27 27 26 26 23 28 29 28 29 28 28 30 32 33 35 36 37 37 38 38 41 42 42 44
9 7 12 13 13 23 28 37 32 26 26 22 12 18 17 20 17 15 20 27 30 26 29 32 31 28 26 28 30 30 31 33 34 36 38 40 41 42 43 45 45 44 45 46
13 9 7 9 11 26 30 37 24 21 20 23 11 10 12 14 16 16 14 13 13 13 18 21 24 28 30 30 31 32 31 33 33 33 35 38 38 39 40 39 39 40 41 43
8 7 12 7 12 27 31 33 29 22 19 11 6 10 9 12 15 14 17 19 20 21 23 23 24 25 26 27 28 29 34 35 33 35 35 37 38 37 38 37 38 36 34 34
Wind_Direction_850mb
289 292 300 301 289 275 280 274 244 265 288 27 24 8 357 358 344 342 2 2 354 352 349 340 332 331 328 325 325 318 322 327 324 320 328 347 331 331 335 337 336 348 357 5
286 282 276 300 304 303 281 276 284 310 41 4 14 9 353 355 6 0 356 349 352 351 341 337 333 328 332 326 321 323 328 333 341 351 342 335 340 337 330 338 343 347 357 8
292 304 319 301 305 334 13 3 344 320 37 38 17 359 21 27 16 354 344 357 352 343 336 331 333 332 331 325 328 333 347 1 343 340 334 341 333 337 344 343 349 350 352 6
297 302 285 350 46 9 329 28 25 31 17 13 4 347 55 28 5 348 0 356 348 341 333 337 336 332 347 345 348 11 352 341 343 340 345 351 354 352 356 5 4 10 12 12
251 282 263 15 14 21 17 63 35 23 0 346 343 338 93 4 34 32 13 2 349 342 343 342 341 346 349 39 12 351 344 346 352 4 5 354 348 2 4 6 8 21 8 27
263 266 283 54 158 263 282 170 11 1 343 7 353 348 340 341 14 16 11 350 345 346 349 357 6 50 20 356 346 349 342 4 5 356 352 359 7 18 15 16 24 28 21 18
230 241 84 11 264 296 275 16 345 342 15 11 359 341 334 359 11 11 357 353 354 353 18 49 26 9 352 347 355 352 4 17 10 9 7 356 13 17 16 24 26 25 23 26
281 267 241 355 35 40 26 349 338 353 15 358 343 338 353 0 1 357 352 351 358 47 33 19 359 352 356 10 9 22 22 18 13 12 12 8 21 29 30 27 18 20 24 25
104 104 191 71 53 53 20 354 360 351 359 355 340 344 354 358 348 342 344 356 43 32 2 4 359 359 7 12 11 2 6 1 1 354 10 20 23 19 12 22 16 12 15 360
344 102 51 23 65 42 13 15 3 4 2 355 356 344 351 345 341 341 354 23 77 17 358 9 29 359 1 352 348 345 347 357 3 352 356 356 29 15 6 24 31 20 18 15
325 35 84 57 44 28 7 1 358 359 6 357 355 358 352 338 333 352 31 97 57 18 8 346 339 354 359 346 337 330 334 10 354 352 7 12 19 31 14 24 19 23 23 14
64 59 5 59 29 24 9 1 10 4 4 15 13 358 8 27 48 68 97 73 19 8 334 343 350 4 350 358 43 49 25 12 8 14 29 42 36 32 18 20 27 24 16 25
69 39 35 44 65 25 15 16 26 29 19 23 2 34 57 52 65 111 91 20 360 346 351 13 34 25 24 28 32 28 24 25 26 41 52 44 33 47 27 40 22 7 7 22
90 323 90 41 19 28 24 56 24 34 27 11 42 68 54 68 115 82 20 357 4 19 16 39 33 31 32 25 37 31 30 26 42 47 53 42 51 44 37 40 36 26 28 34
103 73 79 48 21 41 69 33 29 43 18 32 70 80 85 95 96 48 357 8 24 36 34 31 29 18 26 31 33 41 37 49 51 54 49 47 57 60 56 41 43 50 62 55
172 143 41 21 32 61 49 23 49 45 32 68 94 97 112 122 26 13 1 28 42 41 36 35 30 34 36 40 48 49 60 58 58 48 52 55 57 55 60 55 57 61 67 78
252 83 30 26 42 73 46 52 62 58 79 104 116 122 103 232 321 322 33 64 50 43 37 41 42 39 42 49 51 72 62 48 62 68 73 75 69 66 64 71 70 69 72 80
94 76 62 61 77 77 82 86 97 96 116 129 129 100 150 31 5 46 41 54 53 51 39 50 55 44 48 65 72 76 59 75 79 82 91 63 55 68 72 72 72 72 71 76
94 87 78 69 75 96 101 107 113 121 132 132 96 108 125 23 56 57 48 43 45 51 49 45 53 49 69 88 81 74 63 64 86 82 86 65 49 66 67 70 73 74 72 71
104 87 84 70 84 100 108 134 122 131 143 123 104 126 46 36 35 46 65 62 55 74 43 67 50 56 68 94 83 88 82 80 80 67 59 55 45 56 56 64 65 71 71 72
106 101 92 79 101 106 136 119 131 140 148 122 124 111 65 53 48 65 62 60 35 60 63 79 75 70 88 90 78 84 90 83 80 80 64 49 56 60 65 67 63 62 69 72
102 107 73 114 114 125 126 133 139 133 132 132 140 90 33 66 63 73 63 61 63 66 76 79 85 85 86 79 81 84 87 82 78 76 64 61 68 67 67 67 70 71 70 67
103 115 77 125 127 137 136 147 139 114 150 148 125 93 89 52 74 81 67 62 70 82 88 94 101 94 84 89 89 90 87 81 78 77 75 72 71 70 70 71 71 69 68 70
124 86 85 132 134 144 151 159 146 132 144 149 117 26 76 80 64 65 69 78 86 91 90 89 95 98 93 84 88 87 84 81 81 81 80 79 77 74 73 75 75 72 72 74
132 48 45 126 151 159 161 167 153 149 144 130 126 97 51 83 100 102 92 93 95 85 75 75 80 88 95 94 92 90 89 87 83 82 79 77 76 76 77 78 76 76 78 79
130 124 61 144 184 165 168 167 159 166 148 144 121 100 90 102 106 101 100 86 70 74 94 84 87 89 91 92 92 91 89 90 90 87 85 84 84 83 81 81 81 83 85 84
139 47 41 89 164 171 171 170 174 185 192 219 191 136 116 116 113 107 106 96 91 88 89 91 92 96 98 100 100 97 98 98 93 89 87 86 83 83 82 81 84 87 94 92